Flag Weather past 2 weeks in Augsburg, Bavaria, Germany

Now
48 °F

Passing clouds.


Feels Like: 46 °F
Forecast: 35 / 46 °F
Wind: 5 mph from North

Location: Augsburg Airport

Current Time: Nov 24, 2014 at 3:14:12 PM

Latest Report: Nov 24, 2014 at 2:50 PM


Visibility: N/A

Pressure: 30.21 "Hg

Humidity: 94%

Dew point: 46 °F

Location of AugsburgLocation

Historic Weather in Augsburg — Graph

°F

Augsburg temperature yesterday

Maximum temperature yesterday: 39 °F (at 8:50 PM)
Minimum temperature yesterday: 36 °F (at 8:50 AM)
Average temperature yesterday: 37 °F

Past Weeks' High & Low Weather Summary

 TemperatureHumidityPressure
High52 °F (Nov 16, 11:50 AM)100% (Nov 9, 1:20 PM)30.30 "Hg (Nov 9, 1:20 PM)
Low34 °F (Nov 17, 6:20 AM)62% (Nov 16, 12:50 PM)29.53 "Hg (Nov 15, 8:20 PM)
Average43 °F98%29.91 "Hg
* Reported Nov 9 1:20 PM — Nov 24 1:50 PM, Augsburg, Weather by CustomWeather, © 2014

Note: Actual official high and low records may vary slightly from our data, if they occured in-between our weather recording intervals... More about our weather records

Advertising

Augsburg weather history for previous 24 hours

 ConditionsComfort  
Time TempWeatherWind HumidityBarometerVisibility
1:50 PM
Nov 24
46 °FSunny.1 mph93%30.18 "Hg10 mi
1:20 PM45 °FSunny.1 mph100%30.18 "Hg10 mi
12:50 PM45 °FSunny.1 mph100%30.21 "Hg10 mi
12:20 PM45 °FSunny.1 mph93%30.21 "Hg10 mi
11:50 AM43 °FSunny.1 mph100%30.21 "Hg10 mi
11:20 AM43 °FSunny.1 mph100%30.21 "Hg10 mi
10:50 AM41 °FSunny.1 mph100%30.21 "Hg10 mi
10:20 AM41 °FSunny.2 mph100%30.21 "Hg10 mi
9:20 AM39 °FSunny.3 mph100%30.18 "Hg10 mi
8:50 AM37 °FSunny.2 mph100%30.18 "Hg10 mi
8:20 AM37 °FPassing clouds.3 mph100%30.15 "HgN/A
7:50 AM36 °FSunny.2 mph100%30.15 "Hg10 mi
7:20 AM36 °FClear.3 mph100%30.15 "Hg10 mi
6:50 AM36 °FClear.2 mph100%30.15 "Hg10 mi
6:20 AM37 °FClear.3 mph100%30.15 "Hg10 mi
5:50 AM37 °FClear.5 mph100%30.15 "Hg10 mi
8:50 PM
Nov 23
39 °FFog.5 mph100%30.18 "Hg1 mi
8:20 PM37 °FFog.7 mph100%30.18 "Hg1 mi
7:50 PM37 °FFog.6 mph100%30.18 "Hg0 mi
7:20 PM37 °FFog.8 mph100%30.18 "Hg0 mi
6:50 PM37 °FFog.7 mph100%30.18 "Hg0 mi
6:20 PM37 °FFog.8 mph100%30.18 "Hg0 mi
5:50 PM37 °FFog.6 mph100%30.21 "Hg0 mi
5:20 PM37 °FFog.7 mph100%30.21 "Hg0 mi
4:50 PM37 °FFog.5 mph100%30.18 "Hg0 mi
4:20 PM37 °FFog.5 mph100%30.21 "Hg0 mi
3:50 PM37 °FFog.6 mph100%30.21 "Hg0 mi
3:20 PM37 °FFog.6 mph100%30.21 "Hg1 mi
Weather by CustomWeather, © 2014

See weather overviewHow to use our weather pages